Location: Allisons_Woods
(35.8920°N, 81.8170°W)
Time: 23:23:55
(UTC-04:00)

Daily predictions for brighter satellites

Satellite Brightness Start Highest point End
(mag) Time Altitude Azimuth Time Altitude Azimuth Time Altitude Azimuth
In-Cosmos 22 4.3 20:06:51 10° N 20:11:59 49° ENE 20:17:05 10° SSE
Spot 2 Rocket 4.3 20:08:28 10° SE 20:12:56 32° ENE 20:17:26 10° N
Lacrosse 4 Rocket 4.4 20:10:42 10° W 20:13:00 15° NW 20:15:19 10° NNW
Cosmos 1378 3.6 20:10:12 10° NNW 20:13:56 65° W 20:17:37 10° S
Lacrosse 5 rocket 3.4 20:13:47 10° N 20:15:34 13° NNE 20:17:19 10° ENE
Cosmos 2344 4.3 20:11:54 10° SW 20:19:28 62° NW 20:27:49 10° NNE
Cosmos 1544 3.2 20:16:16 10° S 20:19:47 51° E 20:23:22 10° NNE
Cosmos 1867 3.5 20:15:42 10° SSW 20:21:06 73° ESE 20:26:34 10° NNE
Cosmos 1076 Rocket 4.3 20:17:34 10° NNE 20:21:20 30° ENE 20:25:03 10° SE
Cosmos 1934 Rocket 4.1 20:15:38 10° S 20:21:46 80° W 20:27:51 10° N
H-2A R/B (2) 2.6 20:19:38 10° WSW 20:22:08 28° S 20:26:47 10° ESE
FENGYUN 3A 3.7 20:17:43 10° SSE 20:23:03 64° ENE 20:28:24 10° N
CZ-2D R/B 4.4 20:19:57 10° SE 20:23:10 25° ENE 20:26:24 10° NNE
Okean 3 Rocket 3.6 20:21:18 10° N 20:25:39 56° E 20:30:00 10° SSE
Cosmos 1805 3.2 20:22:20 10° S 20:26:11 65° E 20:30:03 10° NNE
ALOS 2.2 20:24:23 10° SSE 20:29:02 77° ENE 20:33:43 10° N
Helios 1A 4.4 20:26:16 11° ESE 20:29:10 20° ENE 20:32:14 10° NNE
Cosmos 1833 Rocket 3.4 20:24:46 10° N 20:29:53 34° ENE 20:34:48 11° SE
Envisat 4.5 20:28:31 12° ESE 20:31:19 18° ENE 20:34:38 10° NNE
Abrixas 2.4 20:31:02 10° NW 20:33:51 58° NE 20:35:43 18° ESE
Cosmos 2278 Rocket 3.6 20:31:41 10° SW 20:37:03 43° WNW 20:42:27 10° N
RESURS DK-1 3.8 20:33:31 10° NW 20:37:22 39° WSW 20:41:12 10° S
Tiangong 1 3.0 20:35:22 10° W 20:37:45 22° SW 20:40:08 10° SSE
ATLAS 5 CENTAUR R/B 1.7 20:34:58 10° SSW 20:39:31 70° ESE 20:44:28 10° NE
Cosmos 1125 Rocket 3.5 20:35:54 10° SSW 20:41:05 86° WNW 20:46:20 10° NNE
SeaSat 1 2.4 20:36:46 10° SE 20:41:39 68° ENE 20:46:33 10° NNW
Cosmos 1733 3.9 20:39:16 10° SSE 20:42:42 32° E 20:46:11 10° NNE
Cosmos 1470 3.3 20:40:39 10° SSE 20:44:18 36° E 20:47:57 10° NNE
GPS 2-05 Rocket1 2.8 20:42:33 10° W 20:46:06 81° S 20:48:14 23° E
Cosmos 1048 Rocket 4.0 20:41:45 10° N 20:46:47 55° ENE 20:51:40 11° SSE
Geosat 4.1 20:41:56 10° NE 20:46:49 50° ESE 20:51:39 10° S
Cosmos-2242 3.3 20:42:56 10° SSE 20:46:57 43° E 20:50:59 10° NNE
Cosmos 1766 Rocket 3.9 20:43:47 10° N 20:48:06 45° E 20:52:21 10° SSE
OAO 2 Rocket 4.2 20:43:56 10° SW 20:48:34 34° SSE 20:51:18 21° ESE
GP-B 3.4 20:46:16 10° SSE 20:50:28 44° E 20:54:42 10° NNE
HJ-1C 4.3 20:49:35 10° S 20:52:53 52° W 20:56:15 10° NNW
Cosmos 2297 4.1 20:49:33 10° SSW 20:55:14 69° WNW 21:00:58 10° NNE
USA 186 2.5 20:58:06 22° NNE 20:58:06 22° NNE 20:59:12 10° N
H-2A R/B 3.0 20:53:57 10° S 20:57:50 74° W 21:01:46 10° NNW
BREEZE-M DEB (TANK) 4.4 20:55:14 10° W 20:57:58 37° NNW 21:04:33 10° NE
Resurs 01 Rocket 1.7 20:55:34 10° S 20:59:57 78° WSW 21:04:24 10° NNW
CZ-4B DEB 4.0 21:01:09 24° NE 21:01:09 24° NE 21:03:10 10° NNE
Cosmos 1340 Rocket 3.4 20:57:50 10° N 21:01:33 36° ENE 21:02:27 32° ESE
ISS -2.2 21:07:06 10° WSW 21:10:06 34° NW 21:12:44 12° NNE
Cosmos 2082 Rocket 2.1 21:04:32 10° NNW 21:10:14 86° ENE 21:14:42 17° SSE
Cosmos 2100 Rocket 3.9 21:07:00 10° S 21:13:18 76° E 21:19:40 10° N
Meteor 1-29 2.8 21:11:51 10° NNE 21:15:19 65° E 21:16:41 33° S
SAR-Lupe-4 3.4 21:16:30 39° SSE 21:17:45 85° ENE 21:21:21 10° N
Cosmos 1743 Rocket 3.8 21:14:59 10° N 21:19:16 45° E 21:19:41 44° E
Meteor 1-16 Rocket 4.5 21:13:57 10° SSE 21:19:30 48° E 21:25:10 10° NNE
Cosmos 1500 Rocket 4.5 21:16:19 10° NNE 21:19:25 30° ENE 21:19:25 30° ENE
Cosmos 1271 Rocket 3.2 21:19:35 10° SSW 21:23:33 63° W 21:27:33 10° N
COSMOS 2487 3.3 21:21:37 10° NNW 21:25:04 48° WSW 21:26:44 26° SSW
Aurora 2 Rocket 4.3 21:21:14 10° WSW 21:27:29 30° S 21:28:56 27° SSE
Cosmos 2251 Rocket 4.0 21:23:22 10° N 21:28:22 39° ENE 21:28:42 39° ENE
H-2A R/B 4.2 21:23:03 10° WSW 21:29:01 62° SSE 22:40:53 10° ESE
H-2A R/B 4.2 21:23:04 10° WSW 21:29:01 62° SSE 22:40:53 10° ESE
H-2A R/B 4.2 21:23:03 10° WSW 21:29:02 62° SSE 22:40:54 10° ESE
H-2A R/B 4.2 21:23:03 10° WSW 21:29:02 62° SSE 22:40:53 10° ESE
H-2A R/B 4.2 21:23:04 10° WSW 21:29:02 62° SSE 22:40:54 10° ESE
Cosmos 1674 3.7 21:30:16 10° NNW 21:33:54 45° W 21:36:15 20° SSW
Cosmos 158 Rocket 4.5 21:30:28 10° NNW 21:35:33 59° WSW 21:39:05 20° S
SAR-Lupe-1 4.4 21:36:02 55° SW 21:36:28 61° WSW 21:40:02 10° NNW
USA 215 3.1 21:30:24 10° NE 21:36:55 67° SE 21:43:23 10° SW
Cosmos 1802 Rocket 3.9 21:30:58 10° S 21:37:06 89° W 21:43:18 10° N
Cosmos 1939 Rocket 3.0 21:42:56 67° NNE 21:42:56 67° NNE 21:46:38 10° N
Cosmos 2151 4.4 21:39:53 10° N 21:42:00 26° NNE 21:42:00 26° NNE
Helios 1B rocket 3.7 21:41:17 10° N 21:45:10 40° WNW 21:49:01 10° SW
SJ-11-01 4.2 21:48:15 69° S 21:48:50 85° W 21:53:34 10° NNW
Cosmos 1842 Rocket 3.6 21:50:28 73° WSW 21:50:45 76° W 21:55:08 10° N
Lacrosse 5 rocket 2.2 21:51:29 10° NW 21:54:09 42° NW 21:54:09 42° NW
Cosmos 2369 Rocket 4.1 22:01:47 17° NNE 22:01:47 17° NNE 22:03:02 10° NNE
Cosmos 494 Rocket 3.9 21:54:23 10° NNW 21:59:02 71° NNE 21:59:02 71° NNE
Gblst 52 Del rocket 4.4 22:00:13 10° WSW 22:06:13 70° NW 22:07:38 50° NNE
Envisat 3.8 22:08:43 40° SW 22:09:54 48° W 22:14:49 10° NNW
Cosmos 1864 Rocket 4.5 22:11:34 50° SSW 22:13:23 81° W 22:19:43 10° N
Cosmos 1833 Rocket 4.4 22:08:54 10° NW 22:13:37 28° WSW 22:16:33 18° SSW
ERS-1 Rocket 3.7 22:23:16 51° NW 22:23:16 51° NW 22:27:06 10° NNW
H-2A R/B 4.1 22:31:01 19° NNE 22:31:01 19° NNE 22:32:37 10° N
CZ-3 Stage 3 3.4 22:17:56 10° W 22:38:06 54° SSW 22:38:06 54° SSW
